Regional Weather Roundup
Issued by NWS

Home | Current Version | Previous Version | Text Only | Print | Product List | Glossary On
Versions: 1 2 3 4 5 6 7 8 9 10 11 12 13 14 15 16 17 18 19 20 21 22 23 24 25 26 27 28 29 30 31 32 33 34 35 36 37 38 39 40 41 42 43 44 45 46 47 48 49 50
000
ASUS43 KLSX 232107
RWRMO

WEATHER SUMMARY FOR MISSOURI
NATIONAL WEATHER SERVICE SPRINGFIELD MO
400 PM CDT TUE SEP 23 2014

NOTE: "FAIR" INDICATES FEW OR NO CLOUDS BELOW 12,000 FEET WITH NO
       SIGNIFICANT WEATHER AND/OR OBSTRUCTIONS TO VISIBILITY.
       CURRENT SKY AND/OR WEATHER CONDITIONS ARE NOT AVAILABLE FOR
       CHILLICOTHE AND FARMINGTON.

MOZ001>031-035>038-043-044-053-054-232200-
...NORTHERN AND WESTERN MISSOURI...

CITY           SKY/WX    TMP DP  RH WIND       PRES   REMARKS
KANSAS CTY INT CLOUDY    74  55  51 SE14      30.16F
KANSAS C DTWN  PTSUNNY   76  52  43 S10G21    30.15F
LEE`S SUMMIT   MOSUNNY   74  52  46 SE12      30.18F
ST JOSEPH      CLOUDY    71  52  50 S13       30.15F
CHILLICOTHE      N/A     75  51  43 S8G16     30.20F
KIRKSVILLE     PTSUNNY   71  50  47 SE15      30.22F

$$
MOZ066>068-077>081-088>096-101>105-232200-
...SOUTHWEST MISSOURI...

CITY           SKY/WX    TMP DP  RH WIND       PRES   REMARKS
SPRINGFIELD    MOSUNNY   72  43  35 SE10      30.20F
JOPLIN         SUNNY     75  49  39 SE9       30.17F

$$
MOZ032>034-039>042-045>050-055>058-069>072-232200-
...CENTRAL MISSOURI...

CITY           SKY/WX    TMP DP  RH WIND       PRES   REMARKS
COLUMBIA       MOSUNNY   75  48  38 SE10      30.21F
JEFFERSON CITY MOSUNNY   76  44  32 SE9       30.20F
ROLLA          MOSUNNY   76  45  33 E10       30.21F
SEDALIA        MOSUNNY   73  46  38 SE12      30.21F
WHITEMAN AFB   PTSUNNY   71  51  47 S6        30.19F
OSAGE BEACH    MOSUNNY   75  46  35 SE7       30.21F

$$
MOZ051-052-059>065-232200-
...EAST CENTRAL MISSOURI...

CITY           SKY/WX    TMP DP  RH WIND       PRES   REMARKS
ST LOUIS INTL  PTSUNNY   75  50  41 SE9       30.24F
SPIRIT OF STL  PTSUNNY   73  49  42 SE5       30.22F
ST CHARLES     MOSUNNY   74  49  41 SE8       30.23F

$$
MOZ072>076-082>087-097>100-106>115-232200-
...SOUTH CENTRAL AND SOUTHEAST MISSOURI...

CITY           SKY/WX    TMP DP  RH WIND       PRES   REMARKS
CAPE GIRARDEAU SUNNY     76  46  34 NE9       30.22F
FARMINGTON     MOSUNNY   73  46  38 E6        30.25F
POPLAR BLUFF   MOSUNNY   76  45  33 N6        30.20F
WEST PLAINS    SUNNY     73  40  30 SE7       30.23F

$$



USA.gov is the U.S. government's official web portal to all federal, state and local government web resources and services.